FW9323 Weather Reports


time (UTC)temp
C
wind
direction
speed
KPH
gust
KPH
rain 1hr
cm
rain 24hr
cm
rain mn
cm
humidity
%
barometer
mb
20260504110340 8 216 6.4 9.7 0.00 0.00 0.00 83 1005.6
20260504100257 7 227 3.2 8.0 0.00 0.00 0.00 87 1005.7
20260504081651 7 2 1.6 1.6 0.00 0.00 0.00 78 1006.2
20260504081147 7 312 0.0 1.6 0.00 0.00 0.00 78 1006.2
20260504080644 7 111 3.2 3.2 0.00 0.00 0.00 78 1006.2
20260504080140 7 264 1.6 3.2 0.00 0.00 0.00 78 1006.3
20260504070108 5 32 1.6 1.6 0.00 0.00 0.00 83 1006.3
20260504050456 3 53 1.6 3.2 0.00 0.00 0.00 76 1006.7
20260504045953 3 10 1.6 1.6 0.00 0.00 0.00 79 1006.7
20260504045449 2 333 0.0 0.0 0.00 0.00 0.00 83 1006.9
20260504044945 2 330 0.0 0.0 0.00 0.00 0.00 85 1007.0
20260504044443 2 325 0.0 0.0 0.00 0.00 0.00 87 1006.9
20260504043940 2 296 1.6 1.6 0.00 0.00 0.00 88 1007.0
20260504043437 2 307 0.0 0.0 0.00 0.00 0.00 89 1007.0
20260504042935 1 306 0.0 1.6 0.00 0.00 0.00 92 1006.9
20260504042431 1 342 0.0 0.0 0.00 0.00 0.00 93 1007.1
20260504041928 0 330 0.0 0.0 0.00 0.00 0.00 93 1007.1
20260504041424 0 330 0.0 0.0 0.00 0.00 0.00 94 1007.0
20260504040920 0 337 0.0 0.0 0.00 0.00 0.00 94 1006.9
20260504040418 0 141 0.0 0.0 0.00 0.00 0.00 94 1007.0
20260504035914 0 141 0.0 0.0 0.00 0.00 0.00 94 1007.0
20260504035412 0 141 0.0 0.0 0.00 0.00 0.00 95 1007.1
20260504034908 0 141 0.0 0.0 0.00 0.00 0.00 94 1007.0
20260504034405 0 141 0.0 0.0 0.00 0.00 0.00 94 1007.0
20260504033903 0 141 0.0 0.0 0.00 0.00 0.00 94 1007.1
20260504033400 0 141 0.0 0.0 0.00 0.00 0.00 94 1006.9
20260504032856 0 141 0.0 0.0 0.00 0.00 0.00 94 1007.0
20260504032354 0 141 0.0 0.0 0.00 0.00 0.00 94 1007.0
20260504031850 0 141 0.0 0.0 0.00 0.00 0.00 94 1007.1
20260504031348 0 141 0.0 0.0 0.00 0.00 0.00 94 1007.0
20260504030844 0 141 0.0 0.0 0.00 0.00 0.00 93 1007.0
20260504030341 0 141 0.0 0.0 0.00 0.00 0.00 93 1007.2
20260504025837 0 141 0.0 0.0 0.00 0.00 0.00 93 1007.1
20260504025334 0 141 0.0 0.0 0.00 0.00 0.00 93 1007.1
20260504024831 0 141 0.0 0.0 0.00 0.00 0.00 93 1007.2
20260504024327 0 141 0.0 0.0 0.00 0.00 0.00 93 1007.3
20260504023824 0 141 0.0 0.0 0.00 0.00 0.00 92 1007.1
20260504023321 0 141 0.0 0.0 0.00 0.00 0.00 92 1007.4
20260504022817 0 141 0.0 0.0 0.00 0.00 0.00 92 1007.5
20260504022314 0 141 0.0 0.0 0.00 0.00 0.00 91 1007.4
20260504021810 0 141 0.0 0.0 0.00 0.00 0.00 90 1007.5
20260504021308 0 141 0.0 0.0 0.00 0.00 0.00 90 1007.4
20260504020804 0 141 0.0 0.0 0.00 0.00 0.00 89 1007.4
20260504020301 1 141 0.0 0.0 0.00 0.00 0.00 89 1007.5
20260504015757 1 141 0.0 0.0 0.00 0.00 0.00 89 1007.6
20260504015254 1 141 1.6 1.6 0.00 0.00 0.00 88 1007.4
20260504014749 1 141 0.0 0.0 0.00 0.00 0.00 88 1007.2
20260504014246 1 141 1.6 1.6 0.00 0.00 0.00 87 1007.5
20260504013744 1 141 0.0 0.0 0.00 0.00 0.00 87 1007.4
20260504013241 1 141 0.0 0.0 0.00 0.00 0.00 87 1007.6
20260504012737 1 141 0.0 0.0 0.00 0.00 0.00 86 1007.4
20260504012236 2 141 0.0 0.0 0.00 0.00 0.00 85 1007.3
20260504011732 2 141 0.0 0.0 0.00 0.00 0.00 85 1007.4
20260504011229 2 141 0.0 0.0 0.00 0.00 0.00 84 1007.2
20260504010725 2 141 0.0 0.0 0.00 0.00 0.00 84 1007.2
20260504010221 2 142 0.0 0.0 0.00 0.00 0.00 83 1007.2
20260504005718 2 141 0.0 0.0 0.00 0.00 0.00 81 1007.2
20260504005215 3 141 0.0 0.0 0.00 0.00 0.00 80 1007.0
20260504004713 3 141 0.0 0.0 0.00 0.00 0.00 77 1007.1
20260504004210 4 142 0.0 0.0 0.00 0.00 0.00 77 1007.1
20260504003706 3 142 0.0 0.0 0.00 0.00 0.00 74 1007.0
20260504003203 4 141 0.0 0.0 0.00 0.00 0.00 72 1006.9
20260504002700 5 141 0.0 0.0 0.00 0.00 0.00 70 1006.7
20260504002157 5 142 0.0 0.0 0.00 0.00 0.00 68 1007.1
20260504001655 5 142 0.0 0.0 0.00 0.00 0.00 68 1006.8
20260504001150 6 141 0.0 0.0 0.00 0.00 0.00 66 1007.0
20260504000648 6 142 0.0 0.0 0.00 0.00 0.00 64 1007.0
20260504000145 7 142 0.0 0.0 0.00 0.00 0.00 62 1006.8
20260503235643 7 142 0.0 0.0 0.00 0.00 0.00 61 1006.9
20260503235139 8 142 0.0 0.0 0.00 0.00 0.00 59 1006.7
20260503234638 8 142 0.0 0.0 0.00 0.00 0.00 57 1006.8
20260503234135 9 142 0.0 1.6 0.00 0.00 0.00 54 1006.9
20260503233632 9 142 1.6 1.6 0.00 0.00 0.00 52 1006.8
20260503233128 10 122 3.2 3.2 0.00 0.00 0.00 52 1006.8
20260503232625 10 199 3.2 3.2 0.00 0.00 0.00 50 1006.6
20260503232122 10 327 0.0 1.6 0.00 0.00 0.00 49 1006.6
20260503231620 10 289 0.0 1.6 0.00 0.00 0.00 50 1006.6
20260503231116 10 306 0.0 0.0 0.00 0.00 0.00 51 1006.6
20260503230614 10 308 0.0 0.0 0.00 0.00 0.00 51 1006.8
20260503230111 10 315 0.0 0.0 0.00 0.00 0.00 50 1006.7
20260503225608 10 317 0.0 0.0 0.00 0.00 0.00 52 1006.6
20260503225107 10 317 0.0 0.0 0.00 0.00 0.00 49 1006.6
20260503224605 10 311 1.6 1.6 0.00 0.00 0.00 49 1006.9
20260503224103 10 295 1.6 1.6 0.00 0.00 0.00 50 1006.8
20260503223601 9 308 1.6 3.2 0.00 0.00 0.00 48 1006.9
20260503223056 10 306 0.0 1.6 0.00 0.00 0.00 50 1006.7
20260503222554 10 301 3.2 3.2 0.00 0.00 0.00 50 1006.8
20260503222052 10 303 1.6 1.6 0.00 0.00 0.00 51 1006.8
20260503221550 10 328 3.2 3.2 0.00 0.00 0.00 48 1006.7
20260503221047 10 255 3.2 3.2 0.00 0.00 0.00 49 1006.7
20260503220543 10 306 0.0 0.0 0.00 0.00 0.00 50 1006.7
20260503220040 10 332 0.0 0.0 0.00 0.00 0.00 51 1006.8
20260503215537 10 331 0.0 0.0 0.00 0.00 0.00 50 1006.7
20260503215034 10 339 0.0 1.6 0.00 0.00 0.00 49 1006.7
20260503214533 10 333 1.6 3.2 0.00 0.00 0.00 51 1006.7
20260503214029 10 304 0.0 1.6 0.00 0.00 0.00 51 1006.8
20260503213528 10 334 1.6 1.6 0.00 0.00 0.00 51 1006.5
20260503213024 10 15 3.2 3.2 0.00 0.00 0.00 48 1006.7
20260503212521 10 268 4.8 4.8 0.00 0.00 0.00 49 1006.7
20260503212019 10 313 1.6 1.6 0.00 0.00 0.00 51 1006.6
20260503211515 10 305 3.2 3.2 0.00 0.00 0.00 52 1006.6
20260503211011 10 312 0.0 1.6 0.00 0.00 0.00 50 1006.8
20260503210508 10 296 1.6 3.2 0.00 0.00 0.00 50 1006.7
20260503210004 9 344 3.2 4.8 0.00 0.00 0.00 51 1006.7
20260503205500 10 299 4.8 4.8 0.00 0.00 0.00 52 1006.9
20260503204956 10 299 3.2 3.2 0.00 0.00 0.00 53 1006.6
20260503204454 10 299 4.8 8.0 0.00 0.00 0.00 50 1006.8
20260503203950 10 301 1.6 3.2 0.00 0.00 0.00 50 1006.5
20260503203448 9 311 0.0 1.6 0.00 0.00 0.00 52 1006.6
20260503202944 9 329 1.6 1.6 0.00 0.00 0.00 53 1006.6
20260503202443 9 293 4.8 4.8 0.00 0.00 0.00 51 1006.8
20260503201941 9 296 6.4 9.7 0.00 0.00 0.00 53 1006.9
20260503201438 9 313 1.6 1.6 0.00 0.00 0.00 53 1006.8
20260503200936 9 329 8.0 12.9 0.00 0.00 0.00 52 1006.9
20260503200432 10 356 11.3 12.9 0.00 0.00 0.00 49 1006.7
20260503195928 10 300 0.0 1.6 0.00 0.00 0.00 51 1006.9
20260503195426 10 293 6.4 8.0 0.00 0.00 0.00 52 1007.2
20260503194922 10 289 4.8 4.8 0.00 0.00 0.00 53 1007.1
20260503194419 9 288 4.8 4.8 0.00 0.00 0.00 53 1007.2
20260503193915 8 296 6.4 8.0 0.00 0.00 0.00 52 1007.5
20260503193410 9 358 11.3 14.5 0.00 0.00 0.00 53 1007.5
20260503192906 10 299 11.3 12.9 0.00 0.00 0.00 52 1007.4
20260503192402 9 315 4.8 4.8 0.00 0.00 0.00 53 1007.4
20260503191859 8 289 4.8 8.0 0.00 0.00 0.00 53 1007.4
20260503191356 8 308 6.4 8.0 0.00 0.00 0.00 54 1007.5
20260503190852 8 307 4.8 4.8 0.00 0.00 0.00 54 1007.5
20260503190349 8 300 6.4 9.7 0.00 0.00 0.00 55 1007.6
20260503185846 9 319 3.2 3.2 0.00 0.00 0.00 55 1007.5
20260503185342 9 322 3.2 3.2 0.00 0.00 0.00 53 1007.7
20260503184837 10 339 3.2 3.2 0.00 0.00 0.00 53 1007.7
20260503184333 10 325 0.0 1.6 0.00 0.00 0.00 52 1007.6
20260503183829 10 261 3.2 4.8 0.00 0.00 0.00 53 1007.5
20260503183326 9 327 3.2 3.2 0.00 0.00 0.00 58 1007.6
20260503182824 8 295 11.3 17.7 0.00 0.00 0.00 55 1007.8
20260503182323 8 252 6.4 9.7 0.00 0.00 0.00 54 1007.7
20260503181819 8 325 3.2 3.2 0.00 0.00 0.00 55 1007.7
20260503181317 8 308 4.8 4.8 0.00 0.00 0.00 55 1007.8
20260503180813 8 303 8.0 11.3 0.00 0.00 0.00 54 1007.7
20260503180311 8 294 8.0 9.7 0.00 0.00 0.00 53 1007.8
20260503175807 8 346 4.8 4.8 0.00 0.00 0.00 54 1007.7
20260503175305 8 280 9.7 11.3 0.00 0.00 0.00 54 1008.0
20260503174800 8 305 8.0 11.3 0.00 0.00 0.00 56 1007.9
20260503174259 8 326 3.2 3.2 0.00 0.00 0.00 56 1007.9
20260503173754 8 273 1.6 3.2 0.00 0.00 0.00 56 1007.8
20260503173250 8 232 9.7 12.9 0.00 0.00 0.00 56 1007.9
20260503172747 8 306 4.8 4.8 0.00 0.00 0.00 56 1008.0
20260503172244 8 328 4.8 8.0 0.00 0.00 0.00 55 1008.0
20260503171740 8 277 4.8 4.8 0.00 0.00 0.00 55 1008.1
20260503171238 8 296 1.6 3.2 0.00 0.00 0.00 56 1008.0
20260503170735 8 290 4.8 8.0 0.00 0.00 0.00 54 1008.0
20260503170231 8 289 4.8 8.0 0.00 0.00 0.00 58 1008.3
20260503160153 8 293 8.0 9.7 0.00 0.00 0.00 58 1008.5
20260503150623 8 311 3.2 3.2 0.00 0.00 0.00 57 1008.7
20260503150120 8 270 4.8 8.0 0.00 0.00 0.00 57 1008.6
20260503131013 6 30 1.6 3.2 0.00 0.00 0.00 79 1009.5
20260503130511 7 327 4.8 8.0 0.00 0.00 0.00 80 1009.5